Location: Griffin Ranch
(33.6186°N, 110.6622°W)
Time: 13:37:29
(UTC-07:00)

Cosmos 1812 - Visible Passes

Search period start: 27 November 2014 00:00
Search period end: 07 December 2014 00:00
Orbit: 531 x 539 km, 82.5° (Epoch: 27 November)

Date Brightness Start Highest point End Pass type
(mag) Time Alt. Az. Time Alt. Az. Time Alt. Az.
27 Nov 4.1 05:51:24 10° N 05:55:07 40° E 05:58:48 10° SSE visible
27 Nov 4.0 18:05:43 10° SE 18:08:40 21° E 18:10:19 16° ENE visible
27 Nov 5.3 19:41:46 10° SW 19:44:38 19° WNW 19:45:48 17° NW visible
28 Nov 4.2 05:42:26 10° N 05:46:07 39° E 05:49:47 10° SSE visible
28 Nov 4.1 17:56:48 10° SE 17:59:41 20° E 18:02:27 11° NE visible
28 Nov 5.3 19:32:42 10° SW 19:35:38 20° WNW 19:37:55 13° NW visible
29 Nov 4.2 05:33:27 10° N 05:37:06 37° E 05:40:45 10° SSE visible
29 Nov 4.2 17:47:51 10° SE 17:50:41 19° E 17:53:30 10° NE visible
29 Nov 5.3 19:23:38 10° SW 19:26:37 21° WNW 19:29:37 10° NNW visible
30 Nov 4.3 05:24:27 10° NNE 05:28:05 36° E 05:31:42 10° SSE visible
30 Nov 4.2 17:38:54 10° SE 17:41:40 19° E 17:44:25 10° NE visible
30 Nov 5.2 19:14:32 10° SW 19:17:35 21° WNW 19:20:38 10° NNW visible
01 Dec 4.3 05:15:26 10° NNE 05:19:03 35° E 05:22:38 10° SSE visible
01 Dec 5.2 19:05:27 10° SW 19:08:32 22° WNW 19:11:38 10° NNW visible
02 Dec 4.4 05:07:09 14° NNE 05:10:00 33° E 05:13:34 10° SE visible
02 Dec 5.2 18:56:20 10° SW 18:59:29 23° WNW 19:02:38 10° NNW visible
03 Dec 4.4 04:59:18 23° NE 05:00:57 32° E 05:04:28 10° SE visible
03 Dec 4.6 06:35:04 10° WNW 06:36:40 12° W 06:38:16 10° WSW visible
03 Dec 5.1 18:47:13 10° SW 18:50:24 24° WNW 18:53:37 10° NNW visible
04 Dec 4.5 04:51:28 30° ENE 04:51:52 31° E 04:55:22 10° SE visible
04 Dec 4.6 06:26:57 12° WNW 06:27:36 13° W 06:29:22 10° WSW visible
04 Dec 5.1 18:38:05 10° SW 18:41:20 25° WNW 18:44:35 10° NNW visible
05 Dec 4.8 04:43:37 27° ESE 04:43:37 27° ESE 04:46:15 10° SE visible
05 Dec 4.6 06:19:06 13° W 06:19:06 13° W 06:20:26 10° WSW visible
05 Dec 5.0 18:28:57 10° SW 18:32:14 26° WNW 18:35:32 10° NNW visible
06 Dec 5.3 04:35:45 18° SE 04:35:45 18° SE 04:37:07 10° SE visible
06 Dec 4.9 06:11:14 11° WSW 06:11:14 11° WSW 06:11:28 10° WSW visible
06 Dec 5.0 18:19:48 10° SW 18:23:08 26° WNW 18:26:28 10° NNW visible
